User: anonymous
Location: Unspecified
(0.0000°N, 0.0000°E)
Time: 00:06:28
(UTC+02:00)
Language:

Hamsat - Orbit

View from above orbital plane
View from above orbital plane
View from above satellite
View from above satellite

Ground track
Ground track

The orbit data is extracted from the following two-line orbital elements,

1 28650U 05017B   14109.07590417  .00005148  00000-0  60226-3 0  7133
2 28650 097.5609 117.0050 0024853 357.1970 002.9102 14.85260122484457
Epoch (UTC): 19 April 2014 01:49:18
Eccentricity: 0.0024853
inclination: 97.5609°
perigee height: 595 km
apogee height: 630 km
right ascension of ascending node: 117.0050°
argument of perigee: 357.1970°
revolutions per day: 14.85260122
mean anomaly at epoch: 2.9102°
orbit number at epoch: 48445

The dashed part of the orbit path shows where the satellite is in the earth's shadow,  

DLR